loading
|

OPS 5798 DEB, 901

Orbit data source: Space-Track

OPS 5798 DEB, 901 is space debris in LEO originally from a launch on Tue, 06 Oct 1964 UTC launched from the Air Force Western Test Range (AFWTR). Debris objects in space refer to the collection of defunct objects orbiting the Earth. Examples of debris include non-operational satellites, rocket bodies, and fragments generated from explosions, collisions, or faulty payload assembly.

Loading next visibility...
Loading greatness...
OPS 5798 DEB details
Identifier
901, 1964-063D
Orbit
LEO
Last TLE update13 hours ago
Origin
Flag of USUSN BuWeps (US)
ManufacturerNAFI?
Mission statusUnknown
MissionUnknown
Bus & MotorUnknown
Mass~20 kg wet, ~20 kg dry
Launch date (UTC)
1964-10-06 (60 years ago)
Launch vehicleUnknown
Launch site
Air Force Western Test Range (AFWTR)
Object type
Payload
Rocket body
Debris
Radar Cross Section1.3 m², Large (>1 m²)

Expand to show TLE details & history

TLE from 13 hours ago
0 OPS 5798 DEB
1 00901U 64063D   24251.50931832  .00000355  00000-0  50277-3 0  9991
2 00901  90.2189  61.3041 0018607 203.8785 215.2495 13.54953198958740
Epoch: 2024-09-07T12:13Z
Definitive object data (Epoch: 2024-09-07T12:13:25.102Z)
Latitude59.09537°
Longitude-109.48079°
Altitude1,075.488 km
Speed7.314 km/s
True Right ascension04h 03m 45s
True Declination58° 57' 00"
Sunlit
Object was in daylight at TLE epoch
Predictive object data (real-time)
Latitude2.52115°
Longitude70.90466°
Altitude1,044.209 km
Speed7.336 km/s
Apparent Right ascension14h 04m 40s
Apparent Declination-49° 13' 47"
Sunlit
Object is in daylight
Predictive observer data (real-time)
Local Sidereal Time17:22:41
Azimuth210.206° SW
Elevation-9.246°
Doppler factor1
Orbital elements
Apogee1,064.957 km
Perigee1,037.309 km
Semi-major axis7,429.27 km
Eccentricity0.0018607
Inclination90.2189°
RAAN61.3041°
Arg. of periapsis203.8785°
True anomaly215.12668°
Mean anomaly215.2495°
Eccentric anomaly215.18806°
Mean motion3.38941 °/min
BSTAR0.00050277
Period106.21 mins
No data available

OPS 5798 DEB Visibility forecast

Observer location: 39.9160978°, -105.1181434

OPS 5798 DEB is not visible in the next 10 days
Span
Click to sort rows by Start time (UTC) header in descending order
Start Az.
Max El. time (UTC)
Max El. Az.
Max El.
End time (UTC)
End Az.